Location: Gleizolles
(44.4833°N, 6.7667°E)
Time: 06:08:16
(UTC+00:00)

Transit 4A - Pass Details

Date: 30 June 2024
Orbit: 870 x 973 km, 66.8° (Epoch: 14 July)

Event Time Altitude Azimuth Distance (km) Brightness Sun altitude
Rises 21:35:17 0° 253° (WSW) 3,456 11.0 -16.9°
Reaches altitude 10° 21:38:16 10° 267° (W) 2,517 10.5 -17.2°
Maximum altitude 21:42:53 24° 320° (NW) 1,736 10.2 -17.6°
Drops below altitude 10° 21:47:32 10° 13° (NNE) 2,535 10.9 -18.0°
Sets 21:50:33 0° 27° (NNE) 3,487 11.4 -18.2°
